#timestamp,LO_Frequency,Hit,StdDev 
1457042415.4,286046986.1,N
1457042435.2,286046986.2,N
1457042455.1,286046982.2,Y
1457042456.0,286046982.2,P
1457042475.8,286046994.0,N
1457042495.6,286046994.7,N
1457042515.5,286046991.8,N
1457042535.3,286046989.3,N
1457042555.1,286046986.9,Y
1457042575.9,286046997.0,P
1457042595.7,286046997.5,N
1457042615.5,286046996.7,N
1457042635.4,286046997.5,N
1457042655.2,286046997.6,N
1457042675.0,286046995.6,N
1457042675.9,286046995.6,N
1457042695.7,286046993.7,N
1457042715.6,286046995.7,N
1457042735.4,286046995.0,N
1457042755.2,286046996.7,N
1457042775.1,286046996.7,N
1457042776.0,286046996.7,N
1457042795.8,286046999.7,N
1457042815.6,286047000.4,N
1457042835.5,286047002.8,N
1457042855.3,286047001.7,N
1457042875.1,286047003.1,N
1457042895.9,286047003.1,N
1457042915.7,286047009.2,N
1457042935.5,286047009.8,N
1457042955.4,286047009.5,N
1457042975.2,286047011.9,N
1457042995.0,286047015.9,N
1457042995.9,286047015.9,N
1457043015.7,286047017.9,N
1457043035.6,286047021.3,N
1457043055.4,286047025.2,Y
1457043075.2,286047021.1,P
1457043095.1,286047023.7,N
1457043096.0,286047023.7,N
1457043115.8,286047027.7,Y
1457043135.7,286047009.1,P
1457043155.5,286047007.9,N
1457043175.3,286047010.0,N
1457043195.1,286047011.2,N
1457043215.9,286047015.3,Y
1457043235.7,286047004.5,P
1457043255.5,286047005.8,N
1457043275.4,286047005.3,N
1457043295.2,286047003.1,N
1457043315.0,286047007.4,N
1457043315.9,286047007.4,N
1457043335.8,286047007.9,Y
1457043355.6,286047001.7,P
1457043375.4,286047001.4,N
1457043395.3,286047005.5,N
1457043415.1,286047002.6,N
1457043435.8,286047002.7,N
1457043455.7,286047002.4,N
1457043475.5,286047002.4,N
1457043495.3,286047002.8,N
1457043515.2,286047001.3,N
1457043535.9,286046999.8,N
1457043555.7,286047002.4,N
1457043575.6,286047001.7,N
1457043595.4,286047001.6,N
1457043615.2,286047003.3,N
1457043635.1,286047003.0,N
1457043636.0,286047003.0,N
1457043655.8,286047000.1,N
1457043675.6,286047001.5,N
1457043695.5,286047000.4,N
1457043715.3,286046999.8,N
1457043735.1,286046999.8,N
1457043755.8,286047001.1,N
1457043775.7,286046996.6,N
1457043795.5,286046998.0,N
1457043815.3,286046995.6,N
1457043835.2,286046997.9,N
1457043855.0,286046997.9,N
1457043855.9,286046997.9,N
1457043875.8,286046997.3,N
1457043895.6,286046999.6,N
1457043915.4,286046993.5,N
1457043935.3,286046997.7,N
1457043955.1,286046997.2,N
1457043956.0,286046997.2,N
1457043975.8,286046999.3,N
1457043995.7,286046996.6,N
1457044015.5,286046999.6,N
1457044035.3,286047001.0,N
1457044055.2,286046996.8,N
1457044075.9,286046997.7,N
1457044095.7,286046994.4,N
1457044115.5,286046994.1,N
1457044135.4,286046994.2,N
1457044155.2,286046994.2,N
1457044175.0,286046994.7,N
1457044175.9,286046994.7,N
1457044195.8,286046995.4,N
1457044215.6,286046995.1,N
1457044235.4,286046995.6,N
1457044255.3,286046997.4,N
1457044275.1,286046996.1,N
1457044295.8,286046997.2,N
1457044315.7,286046997.1,N
1457044335.5,286046998.6,N
1457044355.3,286047000.8,N
1457044375.2,286046997.1,N
1457044395.9,286046998.4,N
1457044415.7,286047000.4,N
1457044435.6,286046998.5,N
1457044455.2,286046998.2,N
1457044475.0,286046998.6,N
1457044475.9,286046998.6,N
1457044495.7,286046997.6,N
1457044515.6,286046996.7,N
1457044535.4,286046999.8,N
1457044555.2,286046998.3,N
1457044575.1,286046997.1,N
1457044576.0,286046997.1,N
1457044595.8,286046996.6,N
1457044615.6,286046998.8,N
1457044635.5,286046998.9,N
1457044655.3,286046994.9,N
1457044675.1,286046994.1,Y
1457044695.9,286046994.9,P
1457044715.7,286047002.3,N
1457044735.5,286047002.3,N
1457044755.4,286047002.4,N
1457044775.2,286047002.1,N
1457044795.0,286047000.6,N
1457044795.9,286047000.6,N
1457044815.8,286046998.3,N
1457044835.6,286046997.9,N
1457044855.4,286046995.4,N
1457044875.3,286046993.9,N
1457044895.1,286046995.6,N
1457044896.0,286046995.6,N
1457044915.8,286046994.2,N
1457044935.6,286046994.8,N
1457044955.5,286046995.0,N
1457044975.3,286046997.8,N
1457044995.2,286046999.0,N
1457045015.9,286047005.9,N
1457045035.7,286047002.4,N
1457045055.6,286047001.4,N
1457045075.4,286047001.7,N
1457045095.2,286047001.7,N
1457045115.1,286047005.9,N
1457045116.0,286047005.9,N
1457045135.8,286047006.3,N
1457045155.6,286047007.5,N
1457045175.5,286047007.1,N
1457045195.3,286047007.5,N
1457045215.1,286047010.6,N
1457045235.8,286047010.8,N
1457045255.7,286047010.3,N
1457045275.5,286047009.5,N
1457045295.3,286047011.2,N
1457045315.2,286047014.0,N
1457045335.9,286047009.7,N
1457045355.7,286047011.2,N
1457045375.6,286047014.2,N
1457045395.4,286047013.1,N
1457045415.2,286047014.3,N
1457045435.1,286047015.3,N
1457045436.0,286047015.3,N
1457045455.8,286047014.6,N
1457045475.6,286047015.4,N
1457045495.5,286047014.9,N
1457045515.3,286047014.1,N
1457045535.1,286047013.2,N
1457045555.8,286047013.9,N
1457045575.7,286047012.8,N
1457045595.5,286047014.8,Y
1457045615.3,286047007.6,P
1457045635.2,286047007.5,P
1457045655.0,286047003.4,N
1457045655.9,286047003.4,N
1457045675.7,286047005.1,N
1457045695.6,286047006.6,N
1457045715.4,286047004.8,N
1457045735.2,286047004.0,N
1457045755.1,286047001.7,N
1457045756.0,286047001.7,N
1457045775.8,286047001.9,N
1457045795.6,286047002.3,N
1457045815.5,286047002.6,N
1457045835.3,286047001.6,N
1457045855.1,286047002.4,N
1457045875.9,286046999.9,N
1457045895.7,286046998.6,N
1457045915.5,286046999.4,N
1457045935.4,286046998.5,N
1457045955.2,286047000.8,N
1457045975.0,286046999.9,N
1457045975.9,286046999.9,N
1457045995.7,286046998.3,N
